Tracking 19854 objects as of 23-Sep-2019
HD Live streaming from Space Station
objects crossing your sky now

DELTA 1 DEB

Track DELTA 1 DEB now!
10-day predictions


NORAD ID: 12185
Int'l Code: 1978-026AA
Perigee: 788.0 km
Apogee: 927.8 km
Inclination: 99.1 °
Period: 101.9 minutes
Semi major axis: 7228 km
RCS: 0.0609 m2 (small)
Launch date: March 5, 1978
Source: United States (US)
Launch site: AIR FORCE WESTERN TEST RANGE (AFWTR)

Note: This is SATELLITE DEBRIS
aabbcc
Your satellite tracking list
Your tracking list is empty




NASA's NSSDC Master Catalog

Two Line Element Set (TLE):
1 12185U 78026AA  19266.29300287  .00000090  00000-0  70410-4 0  9990
2 12185  99.1173 163.2090 0096737  21.9096  97.8312 14.12523325982141
Source of the keplerian elements: AFSPC